Theta_e
281 281 281 282 282 282 283 283 284 286 287 286 286 286 285 285 284 285 285 285 285 285 285 285 286 290 294 296 299 303 308 308 308 308 307 306 306 307
281 281 281 281 281 281 282 282 282 283 285 284 284 284 284 283 283 284 284 285 285 285 285 285 285 285 287 294 296 299 304 305 307 306 307 305 305 306
280 280 280 280 280 280 280 280 281 281 282 282 282 282 282 282 282 283 283 284 284 285 285 286 286 285 286 286 292 296 299 302 303 305 305 305 304 305
279 278 279 278 278 279 279 279 279 279 280 280 280 281 281 281 281 282 282 283 283 284 285 286 287 288 288 288 287 291 294 295 300 301 302 303 303 304
278 277 277 277 277 277 277 277 277 278 278 278 279 278 279 279 280 281 281 281 282 284 285 285 286 287 287 288 289 287 288 292 294 299 300 300 301 301
277 276 276 275 275 275 275 275 276 276 277 277 277 277 277 277 278 279 281 281 282 283 284 284 285 285 286 287 288 287 287 288 292 294 298 299 299 298
276 275 275 274 273 273 274 274 275 275 275 275 275 276 277 277 277 277 277 278 278 279 280 282 285 286 287 287 288 288 288 287 287 291 294 297 298 297
275 274 273 273 273 273 273 273 273 274 274 274 274 275 275 276 276 276 276 276 278 277 278 278 278 279 280 285 286 286 287 288 288 290 291 295 297 298
273 273 273 273 272 272 272 272 273 273 274 274 274 275 275 275 275 275 275 276 277 277 277 278 278 279 280 280 282 286 287 287 288 288 288 292 296 297
272 272 272 272 272 272 273 273 273 274 274 274 274 274 274 275 275 275 276 276 277 277 277 278 278 278 278 279 280 281 284 286 287 287 289 288 293 296
272 272 272 272 272 274 275 275 275 275 275 275 276 276 277 277 277 278 278 278 278 278 277 277 277 277 277 277 278 279 282 283 285 286 287 289 289 293
273 273 273 274 274 275 275 276 276 276 277 277 277 277 276 276 276 276 276 277 277 277 277 277 277 277 277 277 278 279 279 284 285 285 286 287 289 290
274 274 274 274 274 276 276 275 274 275 274 274 274 274 274 274 275 276 276 276 276 276 276 276 276 276 276 277 276 277 277 279 281 286 286 287 288 290
274 274 274 275 274 273 273 272 272 272 271 271 272 272 273 273 273 274 274 275 275 275 275 275 275 275 276 276 276 276 276 276 279 284 286 286 288 289
273 274 273 272 270 269 269 269 269 269 269 269 270 270 271 271 271 271 272 273 273 274 274 275 275 275 275 275 275 275 275 276 277 280 285 286 286 288
274 271 270 268 268 267 267 267 267 267 267 267 268 269 269 269 270 271 271 272 273 273 274 274 274 274 275 274 274 275 274 275 275 278 283 286 286 287
272 270 268 266 266 267 266 266 266 266 267 267 267 267 267 268 269 270 272 273 273 273 274 274 274 274 274 274 274 274 274 274 275 276 280 285 286 287
269 267 266 265 265 266 266 266 266 266 266 266 266 267 267 268 269 269 271 273 273 274 274 274 275 275 275 274 274 274 274 275 275 277 282 285 286 286
266 265 264 264 264 265 265 265 265 265 265 266 266 266 267 268 268 269 270 271 273 274 274 275 276 277 278 276 276 277 275 275 275 278 283 284 285 286
264 263 263 263 263 264 264 264 264 264 265 265 265 266 267 268 268 269 269 270 271 272 273 275 277 278 280 278 278 279 279 277 278 279 282 284 284 285
262 262 262 262 262 262 263 263 263 263 263 264 265 266 267 268 268 268 269 269 270 271 273 275 276 278 280 281 279 280 280 282 281 282 284 284 284 285
262 261 261 261 261 261 261 262 262 263 263 264 265 265 266 268 268 268 268 269 270 271 272 274 276 279 280 282 283 284 282 282 283 283 282 284 285 285
262 261 261 261 261 260 260 261 261 262 262 263 264 265 265 267 267 268 268 269 270 271 272 274 276 278 279 280 280 281 280 281 279 278 278 278 281 282
Wind_Speed
11 11 11 10 10 11 12 13 15 10 13 22 24 17 22 29 30 28 31 36 37 36 35 32 30 28 28 29 27 27 29 33 32 29 27 26 26 25
11 12 11 12 13 12 13 15 16 20 12 23 29 32 31 31 31 29 29 32 36 35 36 35 34 32 30 29 30 28 30 33 31 32 29 28 28 28
11 12 13 13 14 16 16 17 19 19 22 32 28 29 36 35 33 29 29 30 31 32 34 34 34 34 33 31 30 32 31 35 36 35 33 31 30 30
13 13 15 15 16 16 17 20 21 22 24 29 32 28 28 30 35 37 32 29 32 32 31 32 32 32 32 33 33 32 35 37 38 40 38 35 33 33
13 14 15 16 17 17 19 22 22 24 24 27 34 29 29 28 30 31 34 34 31 29 28 29 30 30 30 31 32 35 35 37 39 41 42 40 38 37
13 14 16 16 17 19 21 22 23 24 25 27 29 30 29 28 27 28 29 26 29 27 26 28 31 33 33 33 33 35 36 36 37 40 42 44 43 41
15 15 16 17 19 20 21 22 24 25 25 26 27 28 28 26 25 26 29 31 35 31 32 26 23 24 24 24 24 24 27 34 36 38 41 44 46 45
16 16 17 17 17 19 21 22 23 26 26 25 26 27 29 29 28 26 26 26 20 27 23 34 29 33 35 27 27 30 30 30 29 31 39 44 47 47
16 17 18 17 18 20 21 23 24 24 25 28 30 30 32 29 29 29 28 28 29 31 32 39 30 31 28 30 33 30 31 32 33 34 33 38 45 47
16 17 18 20 20 22 25 27 28 28 26 28 31 35 35 35 34 36 35 35 33 31 27 32 29 33 31 31 33 34 37 35 35 35 36 36 40 45
16 17 19 22 22 25 30 30 31 32 33 34 35 36 38 38 37 38 33 29 27 28 28 31 29 33 34 34 34 34 34 35 40 39 38 37 37 41
17 18 19 22 26 28 31 32 35 33 28 30 27 24 25 30 33 35 36 32 30 27 28 27 25 26 21 27 22 19 28 28 36 41 44 42 40 37
20 22 22 24 28 30 31 32 32 39 37 35 30 29 29 28 28 28 28 31 31 34 34 29 27 27 28 36 34 30 29 35 34 32 31 38 42 39
21 22 24 23 26 34 34 31 31 31 27 25 24 24 24 25 25 25 26 28 31 37 41 32 25 27 30 30 29 30 30 33 34 34 33 30 28 37
20 23 19 27 27 25 22 25 23 19 20 21 22 24 25 26 28 28 27 29 31 36 39 36 34 36 35 35 34 34 32 30 33 33 32 33 29 28
17 15 22 23 18 18 19 18 18 17 19 21 23 25 27 26 25 25 25 27 27 32 34 32 32 34 35 37 37 36 33 28 30 36 35 34 30 28
18 21 20 16 17 16 17 17 18 18 19 19 21 24 25 25 25 25 25 24 25 27 31 33 27 31 35 38 35 36 36 35 34 37 36 28 27 27
13 13 14 14 15 16 18 20 19 19 19 21 22 22 24 25 26 27 26 24 24 26 29 32 30 27 27 33 40 39 38 35 32 34 36 25 24 26
13 11 12 13 15 15 17 19 21 22 23 21 23 24 25 26 27 26 26 25 25 25 28 31 29 25 13 13 35 28 39 33 32 29 24 23 20 20
11 10 12 12 14 15 17 18 21 23 23 24 24 24 25 26 27 26 26 25 25 27 29 30 27 26 15 18 15 29 24 36 29 30 28 26 28 24
10 11 12 13 14 15 17 18 20 23 25 26 25 25 26 25 27 27 27 28 28 27 24 27 29 34 33 29 15 23 27 23 40 28 22 20 19 20
13 14 15 15 15 16 17 18 19 22 23 24 25 25 27 25 27 27 27 26 26 26 28 32 33 29 22 17 9 14 9 8 13 20 6 15 10 7
17 17 17 18 17 17 17 17 19 22 25 25 26 26 27 27 27 25 26 27 26 26 26 27 26 21 17 11 11 6 3 1 3 6 10 9 2 6
Wind_Direction
350 342 337 326 320 315 305 298 296 302 302 303 301 302 302 303 302 303 301 300 300 298 297 296 295 293 283 277 276 269 254 248 248 248 251 251 249 249
335 333 330 325 320 314 306 297 286 284 287 291 293 297 300 300 300 300 297 296 299 296 294 290 290 289 288 280 272 268 258 251 251 250 249 250 247 245
328 325 322 320 316 311 304 297 292 287 285 289 289 292 298 302 303 301 299 295 293 291 291 290 287 285 284 282 277 267 261 255 251 250 251 248 246 243
318 318 315 315 312 307 303 298 294 291 288 290 293 296 294 297 300 303 301 295 291 289 288 288 287 284 280 278 275 272 264 254 253 252 250 247 245 242
307 307 307 308 305 303 301 298 296 294 292 291 295 299 297 297 296 297 300 299 293 290 290 289 288 287 282 277 272 270 270 263 253 251 250 248 246 242
300 300 301 301 300 301 300 297 297 296 295 293 293 299 300 300 296 296 300 302 304 304 302 297 290 285 284 282 275 270 268 268 263 255 250 250 247 244
301 301 300 295 295 294 294 296 296 295 295 295 294 295 298 305 301 300 295 299 299 303 297 288 300 298 289 285 286 286 279 268 265 261 252 249 247 246
300 300 299 299 298 296 293 291 289 291 289 292 294 290 294 297 298 296 296 296 298 307 309 298 298 295 289 295 287 284 281 276 273 269 259 250 247 244
297 300 302 301 302 302 299 296 292 287 285 285 285 285 288 289 292 291 286 284 287 293 296 290 296 288 288 287 277 281 280 276 273 271 269 256 248 245
295 298 299 303 305 305 302 292 289 285 281 280 275 274 275 278 275 274 277 277 276 278 282 282 296 290 294 288 285 278 271 274 272 272 267 266 254 245
297 299 298 301 303 304 300 297 292 285 280 278 278 280 280 281 281 283 282 284 283 280 280 279 290 293 294 289 283 275 272 270 267 266 266 262 261 251
303 303 301 300 303 304 299 295 288 290 297 297 293 294 289 285 282 276 276 276 279 282 278 281 288 296 301 291 274 313 308 290 270 262 259 257 253 251
302 304 305 306 306 305 304 308 305 305 305 300 296 295 293 292 287 282 273 266 271 273 280 281 281 283 274 285 285 288 291 298 289 270 264 260 252 244
300 302 304 309 310 308 305 304 306 305 305 300 297 295 296 296 296 295 289 282 273 271 278 276 274 271 276 281 285 287 281 279 286 280 260 262 259 246
299 300 311 315 312 312 311 316 318 313 310 306 303 298 297 297 297 296 291 285 281 276 274 272 266 269 268 271 277 279 282 280 276 275 261 253 252 245
301 306 316 315 315 314 321 326 323 318 314 307 303 302 302 302 297 296 291 289 285 282 280 273 268 264 265 265 269 275 272 269 273 273 272 246 248 239
312 313 317 320 319 321 323 322 322 322 319 315 309 306 303 303 300 302 294 287 279 282 285 286 278 268 260 261 266 265 264 263 263 260 269 244 238 234
309 308 310 310 311 318 320 318 320 321 321 317 312 308 304 304 304 303 301 293 285 284 283 284 287 281 268 260 251 259 261 257 258 255 253 239 233 231
309 301 298 303 306 312 312 314 316 318 318 317 313 308 306 305 307 304 302 300 297 290 284 285 284 277 268 261 271 248 247 247 245 243 250 215 233 239
294 290 293 297 304 307 307 308 311 314 318 315 311 308 305 304 307 304 302 300 299 297 296 293 286 277 263 253 267 271 264 236 231 242 252 234 239 251
286 285 289 293 297 300 301 303 305 308 308 308 308 309 308 304 305 302 300 298 296 295 294 295 296 297 291 278 258 266 271 254 232 237 231 218 224 230
284 286 290 292 294 295 298 300 305 307 305 307 308 307 310 308 308 303 301 300 300 297 295 296 302 303 296 289 293 285 259 257 244 236 210 234 229 218
285 289 291 293 297 299 298 297 300 303 304 305 308 307 310 309 310 306 303 303 302 302 303 305 309 308 298 304 312 310 300 136 81 71 78 55 267 223